GEESAT-4 07 (65125 NORAD) Tracking and Keplerian Element Data

This shows tracking and keplerian element data for the satellite.

Feedback or suggestion? Click here.




ElementValue
Catalog65125
NameGEESAT-4 07
Epoch Orbit1985
Epoch Day354.18523114
Epoch Year2025
RAAN283.9856
Inclination49.9927
Eccentricity0.0019023
Argument of Perigee89.8606
Mean Anonmoly270.4512
Mean Motion14.83438383
Decay Rate1.56E-05
L11 65125U 25170G 25354.18523114 .00001560 00000+0 21511-3 0 9992
L22 65125 49.9927 283.9856 0019023 89.8606 270.4512 14.83438383 19853



Live tracking and technical data element details for GEESAT-4 07 (NORAD 65125). GEESAT-4 07 can be tracked NOW for your location showing map with azimuth and elevation plus other details from your city location.







IsCatalogInMostPopularTable: catalog: 65125, numindb: 2
Update: records affected: 1



GetName: 65125 GEESAT-4 07

Hit Count: updated at: Sat, 11 Apr 2026 21:47:42 GMT